Regional Weather Roundup
Issued by NWS

Home | Current Version | Previous Version | Text Only | Print | Product List | Glossary On
Versions: 1 2 3 4 5 6 7 8 9 10 11 12 13 14 15 16 17 18 19 20 21 22 23 24 25 26 27 28 29 30 31 32 33 34 35 36 37 38 39 40 41 42 43 44 45 46 47 48 49 50
000
ASUS43 KMKX 052300
RWRWI

WISCONSIN REGIONAL WEATHER ROUNDUP
NATIONAL WEATHER SERVICE MILWAUKEE/SULLIVAN WI
600 PM CDT SUN JUL 05 2015

NOTE: "FAIR" INDICATES FEW OR NO CLOUDS BELOW 12,000 FEET WITH NO
SIGNIFICANT WEATHER AND/OR OBSTRUCTIONS TO VISIBILITY.

WIZ001-002-006>008-014>016-023>028-060000-
NORTHWEST WISCONSIN

CITY           SKY/WX    TMP DP  RH WIND       PRES   REMARKS
SUPERIOR ARPT  PTSUNNY   83  69  62 S15       29.78F HX  87
ASHLAND        PTSUNNY   82  66  58 S15G23    29.82F HX  84
HAYWARD        PTSUNNY   80  65  59 S14       29.86F HX  82
SIREN          PTSUNNY   83  66  56 S14G22    29.85S HX  86
CUMBERLAND     PTSUNNY   79  63  57 S17       29.88F HX  80
RICE LAKE      PTSUNNY   82  65  55 S17       29.89F HX  84
CHETEK         PTSUNNY   82  68  63 SE15G23   29.89F HX  84
LADYSMITH      PTSUNNY   80  65  59 S12G17    29.94R HX  82
EAU CLAIRE     NOT AVBL
MENOMONIE      NOT AVBL
NEW RICHMOND   PTSUNNY   82  67  60 S12G23    29.87S HX  84
OSCEOLA        PTSUNNY   84  69  61 S14       29.87S HX  87
$$

WIZ003>005-009-010-017-018-060000-
NORTH CENTRAL WISCONSIN

CITY           SKY/WX    TMP DP  RH WIND       PRES   REMARKS
MANITOWISH WTR MOSUNNY   79  62  56 S13       29.92F HX  80
ARBOR VITAE    MOSUNNY   80  61  53 SW9G16    29.94S HX  81
WOODRUFF       MOSUNNY   80  61  53 SW9G16    29.94S HX  81
RHINELANDER    MOSUNNY   80  60  50 SW14      29.96F HX  81
EAGLE RIVER    MOSUNNY   79  57  47 SW8       29.94F HX  80
LAND O LAKES   MOSUNNY   80  58  46 SW8G18    29.94F HX  81
PHILLIPS       PTSUNNY   79  64  58 S13G18    29.92F HX  81
TOMAHAWK       SUNNY     79  62  56 S6        29.96S HX  80
MEDFORD        MOSUNNY   80  62  54 S12G18    29.95F HX  81
MERRILL        MOSUNNY   81  65  58 S9        29.97S HX  82
$$

WIZ029-030-035-036-043>047-060000-
CENTRAL WISCONSIN

CITY           SKY/WX    TMP DP  RH WIND       PRES   REMARKS
WAUSAU         SUNNY     82  59  45 S15       29.95F HX  82
MOSINEE        SUNNY     79  63  57 S12G17    29.98F HX  80
MARSHFIELD     MOSUNNY   81  62  52 S14       29.95F HX  82
STEVENS POINT  SUNNY     81  60  49 SW13G20   29.97F HX  81
WAUPACA        SUNNY     85  62  46 S12       29.97S HX  86
WAUTOMA        NOT AVBL
WISC RAPIDS    MOSUNNY   82  60  47 S12       29.97F HX  82
CAMP DOUGLAS   NOT AVBL
$$

WIZ011>013-019>022-031-037>040-048>050-060000-
NORTHEAST WISCONSIN

CITY           SKY/WX    TMP DP  RH WIND       PRES   REMARKS
ANTIGO         SUNNY     77  63  61 SW10G17   29.98S
SHAWANO        SUNNY     83  60  45 S12       29.96F HX  83
OCONTO         SUNNY     80  66  62 S9        29.96F HX  81
STURGEON BAY   SUNNY     73  59  60 S14G25    30.02R
GREEN BAY      SUNNY     82  61  48 S12       29.97F HX  83
MANITOWOC      NOT AVBL
APPLETON       MOSUNNY   81  61  50 S12       29.99F HX  81
CLINTONVILLE   SUNNY     82  59  44 S14       29.96F HX  82
OSHKOSH        SUNNY     81  63  54 S12       29.98F HX  82
$$

WIZ032>034-041-042-053>061-060000-
SOUTHWEST WISCONSIN

CITY           SKY/WX    TMP DP  RH WIND       PRES   REMARKS
LA CROSSE      MOSUNNY   83  65  54 S16       29.93F HX  85
SPARTA         SUNNY     83  60  45 S8G16     29.95F HX  84
VIROQUA        MOSUNNY   81  64  55 S13       29.99S HX  82
BOSCOBEL       PTSUNNY   82  66  58 VRB6      29.97F HX  84
PRAIRIE DU CHI PTSUNNY   82  62  50 SE9       29.96F HX  83
PLATTEVILLE    PTSUNNY   79  64  60 SE12      30.00F HX  80
$$

WIZ056-057-062-063-064-067-068-060000-
SOUTH CENTRAL WISCONSIN

CITY           SKY/WX    TMP DP  RH WIND       PRES   REMARKS
REEDSBURG      MOSUNNY   82  64  56 S13       29.97F HX  83
BARABOO/DELLS  MOSUNNY   81  61  50 S10       29.99F HX  82
LONE ROCK      NOT AVBL
MINERAL POINT  MOSUNNY   81  63  54 S8        30.01F HX  82
MADISON        PTSUNNY   82  62  50 S15       29.99F HX  83
MIDDLETON      SUNNY     83  61  46 SW12      30.00F HX  83
WATERTOWN      MOSUNNY   80  64  58 S8        30.01S HX  81
MONROE         MOSUNNY   81  64  57 S8        30.02F HX  82
JANESVILLE     MOSUNNY   82  63  51 SW8       30.01F HX  83
$$

WIZ051-052-058>065-066-070>072-060000-
SOUTHEAST WISCONSIN

CITY           SKY/WX    TMP DP  RH WIND       PRES   REMARKS
MILWAUKEE      MOSUNNY   77  59  53 S14       30.02F
WAUKESHA       SUNNY     79  61  53 S14       30.03F HX  80
MILWAUKEE/TIMM SUNNY     81  57  44 S12       30.03S HX  81
RACINE         SUNNY     76  58  53 SE10      30.05F
BURLINGTON     MOSUNNY   79  61  53 S6        30.03F HX  80
KENOSHA        SUNNY     78  60  53 SE8       30.04F
FOND DU LAC    SUNNY     81  63  54 S14       29.99F HX  82
SHEBOYGAN      SUNNY     75  60  59 S14G22    30.02F
WEST BEND      MOSUNNY   79  61  53 SE5       30.02S HX  80
JUNEAU         SUNNY     79  63  57 S13       30.02F HX  81
$$

LSZ147-162-060000-
LAKE SUPERIOR

STATION/POSITION TIME  TEMP    WIND        PRES    WAVE
                       AIR SEA DIR/SP/G            HT/PER
                 (UTC) (F)     (DEG/KT/KT) (MB)    (FT/S)
W MID LAKE BUOY  2150   49 40  120/ 10/ 10 1010.5F   0
DEVILS ISLAND    2200          190/ 10/ 13 1009.0F
SAXON HARBOR     2240   83     200/  8/ 15 1009.5F
$$

LMZ867-665-643>646-060000-
LAKE MICHIGAN

STATION/POSITION TIME  TEMP    WIND        PRES    WAVE
                       AIR SEA DIR/SP/G            HT/PER
                 (UTC) (F)     (DEG/KT/KT) (MB)    (FT/S)
CHAMBERS ISLAND  2200   76     160/  7/ 11 1015.2F
S GREEN BAY BUOY 2200   76 71  170/ 16/ 17 1016.1
N MID LAKE BUOY  2150   55 47  190/ 10/ 10 1016.0F   2/ 4
NORTHPORT PIER   2200   72     150/  8/ 14 1015.2F
SISTER BAY       2244   74     200/ 20/ 25   N/A
ALGOMA LAKESHORE 2211          210/ 12/ 14   N/A
KEWAUNEE LAKESHO 2200   64     190/ 11/ 13 1015.8F
SHEBOYGAN LAKESH 2200   64     180/ 14/ 15 1017.1S
PORT WASHINGTON  2200   71     190/  3/  5 1017.6S
ATWATER BUOY     2200   65 62  190/  8/ 10 1018.6R
MILWAUKEE LAKESH 2200   67     150/ 14/ 16   N/A
KENOSHA   LAKESH 2200   68     180/  7/ 10 1016.9F
$$

TC  - TEMPERATURE IN CELSIUS
VSB - VISIBILITY IN STATUTE MILES
WCI - WIND CHILL INDEX
HX  - HEAT INDEX




USA.gov is the U.S. government's official web portal to all federal, state and local government web resources and services.